South St. Paul, MN

2:04 PM CDT on September 26, 2017 (GMT -0500)
South Saint Paul Municipal-Fleming

Weather History for KSGS - November, 2012

Change the Weather History Date:

Monday, November 26, 2012

  Actual Average (KSTP) Record (KSTP)
Temperature  
Mean Temperature 20 °F -  
Max Temperature 26 °F 36 °F 57 °F (1998)
Min Temperature 14 °F 22 °F -2 °F (1996)
Degree Days  
Heating Degree Days 45    
Moisture  
Dew Point 8 °F    
Average Humidity 63    
Maximum Humidity 74    
Minimum Humidity 44    
Precipitation  
Precipitation 0.00 in - - ()
Sea Level Pressure  
Sea Level Pressure 30.34 in    
Wind  
Wind Speed 8 mph (NW)    
Max Wind Speed 15 mph    
Max Gust Speed 22 mph    
Visibility 10 miles    
Events      
Averages and records for this station are not official NWS values.
T = Trace of Precipitation, MM = Missing Value Source: NWS Daily Summary

Daily Weather History Graph

Daily Weather History Graph

Search for Another Location

Airport or City:

Trip Planner

Search our weather history database for the weather conditions in past years. The results will help you decide how hot, cold, wet, or windy it might be!

Date:

Astronomy

Nov. 26, 2012 Rise Set
Actual Time 7:24 AM CST 4:34 PM CST
Civil Twilight 6:51 AM CST 5:07 PM CST
Nautical Twilight 6:15 AM CST 5:43 PM CST
Astronomical Twilight 5:40 AM CST 6:18 PM CST
Moon 3:29 PM CST 5:32 AM CST
Length of Visible Light 10h 15m
Length of Day
9h 10m
Waxing Gibbous, 97% of the Moon is Illuminated
Nov 26
Waxing Gibbous
Nov 28
Full
Dec 6
Last Quarter
Dec 13
New
Dec 19
First Quarter

Hourly Weather History & Observations

Time (CST) Temp. Windchill Dew Point Humidity Pressure Visibility Wind Dir Wind Speed Gust Speed Precip Events Conditions
12:12 AM 26.6 °F 14.7 °F 11.7 °F 53% 30.15 in 10.0 mi NW 15.0 mph 19.6 mph N/A   Unknown
12:32 AM 25.7 °F 15.1 °F 9.7 °F 51% 30.16 in 10.0 mi NW 11.5 mph 21.9 mph N/A   Unknown
12:52 AM 24.6 °F 13.2 °F 8.6 °F 51% 30.17 in 10.0 mi NW 12.7 mph 18.4 mph N/A   Scattered Clouds
1:12 AM 23.9 °F 13.5 °F 7.7 °F 50% 30.17 in 10.0 mi NW 10.4 mph 19.6 mph N/A   Clear
1:32 AM 22.8 °F 10.9 °F 8.8 °F 55% 30.17 in 10.0 mi NW 12.7 mph - N/A   Clear
1:52 AM 21.9 °F 9.2 °F 9.5 °F 59% 30.19 in 10.0 mi NW 13.8 mph - N/A   Clear
2:12 AM 21.2 °F 9.5 °F 10.0 °F 62% 30.20 in 10.0 mi NNW 11.5 mph - N/A   Clear
2:32 AM 20.1 °F 8.8 °F 10.4 °F 66% 30.22 in 10.0 mi NW 10.4 mph 17.3 mph N/A   Clear
2:52 AM 19.4 °F 6.6 °F 10.2 °F 68% 30.22 in 10.0 mi NW 12.7 mph 17.3 mph N/A   Clear
3:12 AM 18.5 °F 7.5 °F 10.0 °F 70% 30.23 in 10.0 mi NNW 9.2 mph - N/A   Clear
3:32 AM 18.1 °F 7.1 °F 10.0 °F 71% 30.24 in 10.0 mi NNW 9.2 mph - N/A   Clear
3:52 AM 17.6 °F 6.4 °F 9.5 °F 71% 30.24 in 10.0 mi NW 9.2 mph - N/A   Clear
4:12 AM 17.4 °F 6.2 °F 9.3 °F 71% 30.25 in 10.0 mi NNW 9.2 mph - N/A   Mostly Cloudy
4:32 AM 17.2 °F 5.2 °F 9.3 °F 71% 30.25 in 10.0 mi NW 10.4 mph - N/A   Overcast
4:52 AM 17.1 °F 6.6 °F 9.1 °F 71% 30.27 in 10.0 mi NW 8.1 mph - N/A   Overcast
5:12 AM 17.1 °F 6.6 °F 9.1 °F 71% 30.27 in 10.0 mi NNW 8.1 mph - N/A   Overcast
5:32 AM 16.7 °F 6.2 °F 9.1 °F 72% 30.28 in 10.0 mi NNW 8.1 mph - N/A   Overcast
5:52 AM 16.5 °F 8.1 °F 9.1 °F 73% 30.28 in 10.0 mi NNW 5.8 mph - N/A   Overcast
6:12 AM 16.3 °F 7.8 °F 9.1 °F 73% 30.30 in 10.0 mi NW 5.8 mph - N/A   Overcast
6:32 AM 16.3 °F 6.7 °F 8.8 °F 72% 30.30 in 10.0 mi NW 6.9 mph - N/A   Overcast
6:52 AM 15.8 °F 7.2 °F 8.6 °F 73% 30.31 in 10.0 mi NNW 5.8 mph - N/A   Overcast
7:12 AM 15.8 °F 4.2 °F 8.2 °F 72% 30.32 in 10.0 mi NNW 9.2 mph - N/A   Overcast
7:32 AM 15.8 °F 5.1 °F 8.4 °F 73% 30.33 in 10.0 mi NW 8.1 mph - N/A   Overcast
7:52 AM 15.1 °F 3.3 °F 7.7 °F 73% 30.35 in 10.0 mi NW 9.2 mph - N/A   Overcast
8:12 AM 14.5 °F 2.7 °F 7.5 °F 74% 30.35 in 10.0 mi NW 9.2 mph - N/A   Overcast
8:32 AM 14.4 °F 2.4 °F 7.5 °F 74% 30.36 in 10.0 mi NNW 9.2 mph - N/A   Scattered Clouds
8:52 AM 14.5 °F 2.7 °F 6.8 °F 71% 30.37 in 10.0 mi NNW 9.2 mph - N/A   Clear
9:12 AM 15.6 °F 3.2 °F 7.3 °F 70% 30.38 in 10.0 mi NW 10.4 mph - N/A   Clear
9:32 AM 15.8 °F 5.1 °F 7.2 °F 69% 30.38 in 10.0 mi NW 8.1 mph - N/A   Clear
9:52 AM 17.2 °F 7.8 °F 7.7 °F 66% 30.39 in 10.0 mi NNW 6.9 mph - N/A   Clear
10:12 AM 17.6 °F 10.7 °F 7.7 °F 65% 30.40 in 10.0 mi NW 4.6 mph - N/A   Clear
10:32 AM 17.2 °F 10.2 °F 7.3 °F 65% 30.40 in 10.0 mi West 4.6 mph - N/A   Clear
10:52 AM 18.3 °F 13.1 °F 7.7 °F 63% 30.41 in 10.0 mi West 3.5 mph - N/A   Clear
11:12 AM 19.8 °F 11.9 °F 8.2 °F 61% 30.41 in 10.0 mi NNW 5.8 mph - N/A   Clear
11:32 AM 20.1 °F 15.2 °F 8.4 °F 61% 30.40 in 10.0 mi West 3.5 mph - N/A   Clear
11:52 AM 20.8 °F 10.4 °F 8.2 °F 58% 30.41 in 10.0 mi WNW 9.2 mph - N/A   Clear
12:12 PM 21.4 °F 12.8 °F 8.2 °F 57% 30.41 in 10.0 mi WNW 6.9 mph - N/A   Clear
12:32 PM 21.6 °F 12.1 °F 8.1 °F 56% 30.40 in 10.0 mi WNW 8.1 mph - N/A   Clear
12:52 PM 22.6 °F 12.6 °F 7.5 °F 52% 30.39 in 10.0 mi NW 9.2 mph - N/A   Clear
1:12 PM 23.0 °F 13.9 °F 7.7 °F 52% 30.39 in 10.0 mi NNW 8.1 mph - N/A   Clear
1:32 PM 22.8 °F 12.9 °F 7.2 °F 51% 30.38 in 10.0 mi NW 9.2 mph - N/A   Clear
1:52 PM 22.8 °F 13.6 °F 6.4 °F 50% 30.38 in 10.0 mi NW 8.1 mph - N/A   Clear
2:12 PM 22.6 °F 18.0 °F 5.5 °F 48% 30.38 in 10.0 mi NW 3.5 mph - N/A   Clear
2:32 PM 23.4 °F 16.2 °F 5.0 °F 45% 30.37 in 10.0 mi NW 5.8 mph - N/A   Clear
2:52 PM 23.0 °F 13.9 °F 4.3 °F 45% 30.37 in 10.0 mi NW 8.1 mph - N/A   Clear
3:12 PM 22.8 °F 14.5 °F 3.7 °F 44% 30.38 in 10.0 mi WNW 6.9 mph - N/A   Clear
3:32 PM 22.6 °F 11.9 °F 4.6 °F 46% 30.38 in 10.0 mi WNW 10.4 mph - N/A   Clear
3:52 PM 22.1 °F 14.7 °F 5.2 °F 48% 30.38 in 10.0 mi WNW 5.8 mph - N/A   Clear
4:12 PM 21.9 °F 15.7 °F 5.7 °F 50% 30.38 in 10.0 mi WNW 4.6 mph - N/A   Clear
4:32 PM 21.2 °F 13.6 °F 5.9 °F 52% 30.39 in 10.0 mi WNW 5.8 mph - N/A   Clear
4:52 PM 20.8 °F 13.2 °F 6.4 °F 54% 30.39 in 10.0 mi WNW 5.8 mph - N/A   Clear
5:12 PM 20.8 °F 14.4 °F 6.6 °F 54% 30.39 in 10.0 mi West 4.6 mph - N/A   Clear
5:32 PM 20.5 °F 15.6 °F 6.8 °F 56% 30.39 in 10.0 mi WNW 3.5 mph - N/A   Clear
5:52 PM 19.9 °F - 6.8 °F 57% 30.40 in 10.0 mi Calm Calm - N/A   Clear
6:12 PM 19.4 °F 14.3 °F 7.2 °F 59% 30.40 in 10.0 mi West 3.5 mph - N/A   Clear
6:32 PM 19.4 °F - 7.3 °F 60% 30.40 in 10.0 mi Calm Calm - N/A   Clear
6:52 PM 18.3 °F - 7.5 °F 63% 30.39 in 10.0 mi Calm Calm - N/A   Clear
7:12 PM 18.3 °F - 7.7 °F 63% 30.38 in 10.0 mi Calm Calm - N/A   Clear
7:32 PM 18.1 °F - 7.7 °F 64% 30.38 in 10.0 mi Calm Calm - N/A   Clear
7:52 PM 16.5 °F - 7.7 °F 68% 30.37 in 10.0 mi Calm Calm - N/A   Clear
8:12 PM 17.1 °F - 8.4 °F 69% 30.37 in 10.0 mi Calm Calm - N/A   Clear
8:32 PM 16.2 °F - 9.1 °F 74% 30.36 in 10.0 mi Calm Calm - N/A   Clear
8:52 PM 16.2 °F - 8.2 °F 71% 30.37 in 10.0 mi Calm Calm - N/A   Clear
9:12 PM 15.8 °F 10.2 °F 8.8 °F 74% 30.37 in 10.0 mi SSW 3.5 mph - N/A   Clear
9:32 PM 17.2 °F 11.9 °F 8.2 °F 68% 30.37 in 10.0 mi SSW 3.5 mph - N/A   Clear
9:52 PM 17.1 °F 11.7 °F 8.4 °F 69% 30.37 in 10.0 mi SSW 3.5 mph - N/A   Clear
10:12 PM 16.0 °F - 7.7 °F 70% 30.36 in 10.0 mi Calm Calm - N/A   Clear
10:32 PM 16.5 °F 11.0 °F 8.4 °F 70% 30.35 in 10.0 mi SSW 3.5 mph - N/A   Clear
10:52 PM 16.5 °F 11.0 °F 8.4 °F 70% 30.35 in 10.0 mi South 3.5 mph - N/A   Clear
11:12 PM 16.5 °F - 8.2 °F 70% 30.35 in 10.0 mi Calm Calm - N/A   Clear
11:32 PM 16.5 °F - 8.2 °F 70% 30.35 in 10.0 mi Calm Calm - N/A   Clear
11:52 PM 16.3 °F 10.8 °F 8.1 °F 70% 30.35 in 10.0 mi SSW 3.5 mph - N/A   Clear